Regional Weather Roundup
Issued by NWS Northern Indiana

Home | Current Version | Previous Version | Graphics & Text | Print | Product List | Glossary On
Versions: 1 2 3 4 5 6 7 8 9 10 11 12 13 14 15 16 17 18 19 20 21 22 23 24 25 26 27 28 29 30 31 32 33 34 35 36 37 38 39 40 41 42 43 44 45 46 47 48 49 50
000
ASUS43 KIWX 220600
RWRIWX

KIWX WEATHER ROUNDUP
NATIONAL WEATHER SERVICE NORTHERN INDIANA
200 AM EDT TUE JUL 22 2014

NOTE: "FAIR" INDICATES FEW OR NO CLOUDS BELOW 12,000 FEET WITH NO
SIGNIFICANT WEATHER AND/OR OBSTRUCTIONS TO VISIBILITY.

* THESE STATIONS ARE NOT UNDER NWS QUALITY CONTROL. THEY ALSO MAY NOT
  REPORT WEATHER SUCH AS PRECIPITATION OR FOG.

INZ001>027-220700-
NORTHERN INDIANA

CITY           SKY/WX    TMP DP  RH WIND       PRES   REMARKS
GARY*          CLEAR     68  65  91 CALM      30.07S
VALPARAISO     CLEAR     70  64  81 S6        30.08F
6HR MIN TEMP:  68; 6HR MAX TEMP:  81;

KNOX*          CLEAR     62  59  91 CALM      30.08S
6HR MIN TEMP:  44; 6HR MAX TEMP:  86;

SOUTH BEND     CLEAR     70  63  78 CALM      30.09S
6HR MIN TEMP:  69; 6HR MAX TEMP:  83;

GOSHEN         CLEAR     66  63  90 CALM      30.09F
6HR MIN TEMP:  66; 6HR MAX TEMP:  83;

WARSAW*        CLEAR     63  63 100 CALM      30.10S FOG
ANGOLA*        CLEAR     64  63  94 CALM      30.11S
FORT WAYNE     CLEAR     67  62  84 CALM      30.10F
6HR MIN TEMP:  66; 6HR MAX TEMP:  82;

PERU/GRISSOM   CLEAR     65  65 100 CALM      30.09F
6HR MIN TEMP:  65; 6HR MAX TEMP:  82;


$$
INZ028>050-220700-
CENTRAL INDIANA

CITY           SKY/WX    TMP DP  RH WIND       PRES   REMARKS
LAFAYETTE      CLEAR     65  63  93 CALM      30.08F FOG
6HR MIN TEMP:  64; 6HR MAX TEMP:  80;

KOKOMO*        CLEAR     64  63  94 CALM      30.10F
6HR MIN TEMP:  63; 6HR MAX TEMP:  79;

MUNCIE*        CLEAR     65  61  87 CALM      30.11F
6HR MIN TEMP:  64; 6HR MAX TEMP:  80;

INDIANAPOLIS   CLEAR     72  64  76 SE3       30.09F
6HR MIN TEMP:  71; 6HR MAX TEMP:  82;


$$
MIZ043>046-050>051-056>058-064>065-071>073-077>080-220700-
SOUTHWEST LOWER MICHIGAN

CITY           SKY/WX    TMP DP  RH WIND       PRES   REMARKS
BATTLE CREEK   CLEAR     68  63  84 CALM      30.10S
6HR MIN TEMP:  67; 6HR MAX TEMP:  81;

BENTON HARBOR  CLEAR     64  62  93 SE3       30.07S FOG
6HR MIN TEMP:  63; 6HR MAX TEMP:  78;

COLDWATER*     CLEAR     67  64  92 SE3       30.10S
6HR MIN TEMP:  67; 6HR MAX TEMP:  82;

HILLSDALE*     CLEAR     68  64  88 CALM      30.12S
6HR MIN TEMP:  68; 6HR MAX TEMP:  80;

HOLLAND        CLEAR     68  64  87 S5        30.07F FOG
6HR MIN TEMP:  65; 6HR MAX TEMP:  80;

GRAND RAPIDS   CLEAR     69  65  86 CALM      30.08F
6HR MIN TEMP:  69; 6HR MAX TEMP:  82;

KALAMAZOO      CLEAR     68  63  84 CALM      30.09S
6HR MIN TEMP:  67; 6HR MAX TEMP:  82;

STURGIS*       CLEAR     66  64  94 CALM      30.09F
THREE RIVERS*  FAIR      66  65  96 CALM      30.10S
6HR MIN TEMP:  66; 6HR MAX TEMP:  80;


$$
OHZ001>008-015>018-024>025-220700-
NORTHWEST OHIO

CITY           SKY/WX    TMP DP  RH WIND       PRES   REMARKS
DEFIANCE       CLEAR     66  62  87 CALM      30.10F
6HR MIN TEMP:  66; 6HR MAX TEMP:  84;

FINDLAY        CLEAR     66  63  90 SE5       30.11S
6HR MIN TEMP:  66; 6HR MAX TEMP:  83;

TOLEDO EXPRESS CLEAR     64  59  83 CALM      30.11S
6HR MIN TEMP:  64; 6HR MAX TEMP:  81;

TOLEDO METCALF CLEAR     69  59  70 CALM      30.11F
6HR MIN TEMP:  68; 6HR MAX TEMP:  80;

LIMA           CLEAR     70  64  81 E3        30.12S
6HR MIN TEMP:  69; 6HR MAX TEMP:  83;


$$
&&


USA.gov is the U.S. government's official web portal to all federal, state and local government web resources and services.